Columbia, MO

7:28 AM CST on December 15, 2019 (GMT -0600)
Columbia Regional

Weather History for KCOU - November, 2019

Change the Weather History Date:

Saturday, November 16, 2019

  Actual Average Record
Temperature  
Mean Temperature 43 °F 44 °F  
Max Temperature 54 °F 54 °F 81 °F (1952)
Min Temperature 31 °F 35 °F 8 °F (1959)
Degree Days  
Heating Degree Days 22 21  
Month to date heating degree days 420 277  
Since 1 July heating degree days 798 642  
Cooling Degree Days 0 0  
Month to date cooling degree days 0 0  
Year to date cooling degree days 1590 1247  
Moisture  
Dew Point 28 °F    
Average Humidity 60    
Maximum Humidity 76    
Minimum Humidity 44    
Precipitation  
Precipitation 0.00 in 0.11 in 2.27 in (1928)
Month to date precipitation T 1.73  
Year to date precipitation 40.91 38.66  
Snow  
Snow 0.00 in 0.00 in 0.50 in (2014)
Month to date snowfall 1.1 0.2  
Since 1 July snowfall 1.5 0.2  
Since 1 September snowfall 1.5 0.2  
Snow Depth 0.00 in    
Sea Level Pressure  
Sea Level Pressure 30.24 in    
Wind  
Wind Speed 8 mph (ESE)    
Max Wind Speed 14 mph    
Max Gust Speed 19 mph    
Visibility 10 miles    
Events      
T = Trace of Precipitation, MM = Missing Value Source: NWS Daily Summary

Daily Weather History Graph

Daily Weather History Graph

Search for Another Location

Airport or City:

Astronomy

Nov. 16, 2019 Rise Set
Actual Time 6:52 AM CST 4:54 PM CST
Civil Twilight 6:23 AM CST 5:23 PM CST
Nautical Twilight 5:51 AM CST 5:55 PM CST
Astronomical Twilight 5:19 AM CST 6:26 PM CST
Moon 8:28 PM CST (11/16) 10:45 AM CST (11/16)
Length of Visible Light 10h 59m
Length of Day
10h 02m
Waning Gibbous, 82% of the Moon is Illuminated
Nov 16
Waning Gibbous
Nov 19
Last Quarter
Nov 26
New
Dec 4
First Quarter
Dec 11
Full

Hourly Weather History & Observations

Time (CST) Temp. Windchill Dew Point Humidity Pressure Visibility Wind Dir Wind Speed Gust Speed Precip Events Conditions
12:54 AM 36.0 °F 30.3 °F 19.9 °F 52% 30.34 in 10.0 mi ESE 6.9 mph - N/A   Clear
1:54 AM 35.1 °F 29.3 °F 19.9 °F 54% 30.34 in 10.0 mi ESE 6.9 mph - N/A   Clear
2:54 AM 33.1 °F 26.1 °F 21.0 °F 61% 30.33 in 10.0 mi ESE 8.1 mph - N/A   Clear
3:54 AM 33.1 °F 27.7 °F 21.0 °F 61% 30.33 in 10.0 mi ESE 5.8 mph - N/A   Clear
4:54 AM 32.0 °F 25.6 °F 21.0 °F 64% 30.33 in 10.0 mi ESE 6.9 mph - N/A   Clear
5:54 AM 32.0 °F 25.6 °F 21.0 °F 64% 30.34 in 10.0 mi ESE 6.9 mph - N/A   Clear
6:54 AM 32.0 °F 24.8 °F 21.0 °F 64% 30.33 in 10.0 mi ESE 8.1 mph - N/A   Clear
7:54 AM 33.1 °F 26.9 °F 24.1 °F 70% 30.34 in 10.0 mi ESE 6.9 mph - N/A   Clear
8:54 AM 37.9 °F 32.1 °F 25.0 °F 60% 30.34 in 10.0 mi SE 8.1 mph - N/A   Clear
9:54 AM 41.0 °F 34.3 °F 27.0 °F 57% 30.33 in 10.0 mi SE 11.5 mph - N/A   Clear
10:54 AM 46.0 °F 41.0 °F 28.9 °F 51% 30.31 in 10.0 mi SSE 10.4 mph - N/A   Clear
11:54 AM 48.9 °F - 30.9 °F 50% 30.27 in 10.0 mi Variable 4.6 mph - N/A   Clear
12:54 PM 50.0 °F - 30.9 °F 48% 30.23 in 10.0 mi SE 5.8 mph - N/A   Clear
1:54 PM 53.1 °F - 32.0 °F 45% 30.20 in 10.0 mi SE 8.1 mph - N/A   Clear
3:54 PM 53.1 °F - 33.1 °F 47% 30.16 in 10.0 mi ESE 8.1 mph - N/A   Clear
4:54 PM 48.9 °F - 33.1 °F 54% 30.14 in 10.0 mi ESE 6.9 mph - N/A   Clear
5:54 PM 46.9 °F - 33.1 °F 59% 30.14 in 10.0 mi ESE 9.2 mph - N/A   Clear
6:54 PM 44.1 °F 39.5 °F 33.1 °F 65% 30.14 in 10.0 mi ESE 8.1 mph - N/A   Clear
7:54 PM 42.1 °F 36.6 °F 33.1 °F 70% 30.12 in 10.0 mi ESE 9.2 mph - N/A   Clear
8:54 PM 41.0 °F 35.8 °F 32.0 °F 70% 30.13 in 10.0 mi ESE 8.1 mph - N/A   Clear
9:54 PM 41.0 °F 34.7 °F 32.0 °F 70% 30.13 in 10.0 mi ESE 10.4 mph - N/A   Clear
10:54 PM 39.0 °F 34.8 °F 32.0 °F 76% 30.12 in 10.0 mi SE 5.8 mph - N/A   Clear
11:54 PM 37.9 °F 32.7 °F 30.9 °F 76% 30.12 in 10.0 mi SE 6.9 mph - N/A   Clear